Hourly Data Report for September 07, 2019

TORONTO CITY
ONTARIO
Current Station Operator: ECCC - MSC

43°40'00.000" N
79°24'00.000" W
112.50 m
6158355
71508
XTO

Download Data

Hourly Data (September 2019)
Hourly Data Report for September 7, 2019
TIME
LST
Temp Definition
°C
Dew Point Definition
°C
Rel Hum Definition
%
Precip. Amount Definition
mm

Wind Dir Definition
10's deg

Wind Spd Definition
km/h
Visibility Definition
km
Stn Press Definition
kPa
Hmdx Definition


Wind Chill Definition


Weather Definition


00:00 14.3 10.2 76 0.0       99.89     LegendNANA
01:00 13.6 10.0 79 0.0       99.89     LegendNANA
02:00 13.7 10.4 81 0.0       99.86     LegendNANA
03:00 13.0 10.0 82 0.0       99.84     LegendNANA
04:00 12.4 10.1 85 0.0       99.86     LegendNANA
05:00 13.0 10.1 83 0.0       99.87     LegendNANA
06:00 13.4 10.3 81 0.0       99.95     LegendNANA
07:00 14.3 9.9 75 0.0       99.94     LegendNANA
08:00 15.4 10.3 71 0.0       99.94     LegendNANA
09:00 16.4 10.2 67 0.0       99.91     LegendNANA
10:00 18.6 11.2 62 0.0       99.92     LegendNANA
11:00 18.9 10.4 57 0.0       99.92     LegendNANA
12:00 19.3 10.7 57 0.0       99.88     LegendNANA
13:00 19.8 9.7 52 0.0       99.85     LegendNANA
14:00 21.4 10.0 48 0.0       99.80     LegendNANA
15:00 21.5 10.5 49 0.0       99.76     LegendNANA
16:00 22.5 9.6 44 0.0       99.74     LegendNANA
17:00 21.8 8.5 43 0.0       99.78     LegendNANA
18:00 21.2 9.2 46 0.0       99.88     LegendNANA
19:00 18.6 11.2 62 0.0       99.94     LegendNANA
20:00 17.8 10.0 60 0.0       100.00     LegendNANA
21:00 17.2 9.9 62 0.0       100.05     LegendNANA
22:00 16.4 10.0 66 0.0       100.06     LegendNANA
23:00 15.5 10.0 70 0.0       100.09     LegendNANA

Notes on Data Quality.

Legend

  • E = Estimated
  • M = Missing
  • NA = Not Available*
  • [empty] = Indicates an unobserved value
Date modified: